Hourly Weather Kizganbashevo

Today, 27 July, Tuesday

Time Temperature Precipitation Wind Pressure Humidity
00:00 +15°C° 0 mm 2 mps 750 mmHg 64%
01:00 +14°C° 0 mm 2 mps 750 mmHg 66%
02:00 +13°C° 0 mm 3 mps 750 mmHg 65%
03:00 +13°C° 0 mm 3 mps 750 mmHg 64%
04:00 +14°C° 0 mm 3 mps 749 mmHg 63%
05:00 +16°C° 0 mm 3 mps 749 mmHg 62%
06:00 +15°C° 0 mm 4 mps 749 mmHg 61%
07:00 +17°C° 0 mm 4 mps 749 mmHg 60%
08:00 +17°C° 0 mm 5 mps 748 mmHg 56%
09:00 +19°C° 0 mm 5 mps 748 mmHg 53%
10:00 +20°C° 0 mm 6 mps 748 mmHg 50%
11:00 +21°C° 0 mm 6 mps 748 mmHg 50%
12:00 +22°C° 0 mm 6 mps 747 mmHg 50%
13:00 +22°C° 0 mm 6 mps 747 mmHg 50%
14:00 +22°C° 0.3 mm 6 mps 747 mmHg 52%
15:00 +22°C° 0.3 mm 6 mps 746 mmHg 53%
16:00 +23°C° 0.3 mm 6 mps 746 mmHg 55%
17:00 +22°C° 0 mm 5 mps 746 mmHg 54%
18:00 +21°C° 0 mm 5 mps 746 mmHg 53%
19:00 +20°C° 0 mm 4 mps 746 mmHg 53%
20:00 +19°C° 0 mm 4 mps 746 mmHg 57%
21:00 +17°C° 0 mm 3 mps 746 mmHg 61%
22:00 +15°C° 0 mm 2 mps 747 mmHg 65%
23:00 +14°C° 0 mm 2 mps 747 mmHg 68%

Tomorrow, 28 July, Wednesday

Time Temperature Precipitation Wind Pressure Humidity
00:00 +14°C° 0 mm 2 mps 747 mmHg 71%
01:00 +13°C° 0 mm 2 mps 747 mmHg 74%
02:00 +12°C° 0 mm 2 mps 747 mmHg 75%
03:00 +10°C° 0 mm 2 mps 747 mmHg 77%
04:00 +11°C° 0 mm 1 mps 747 mmHg 78%
05:00 +12°C° 0 mm 2 mps 747 mmHg 74%
06:00 +12°C° 0 mm 3 mps 747 mmHg 69%
07:00 +13°C° 0 mm 3 mps 747 mmHg 64%
08:00 +14°C° 0 mm 4 mps 747 mmHg 58%
09:00 +16°C° 0 mm 5 mps 747 mmHg 51%
10:00 +17°C° 0 mm 6 mps 747 mmHg 45%
11:00 +17°C° 0 mm 6 mps 747 mmHg 43%
12:00 +19°C° 0 mm 6 mps 747 mmHg 41%
13:00 +19°C° 0 mm 6 mps 747 mmHg 39%
14:00 +19°C° 0 mm 5 mps 747 mmHg 42%
15:00 +18°C° 0 mm 4 mps 747 mmHg 46%
16:00 +18°C° 0 mm 3 mps 747 mmHg 50%
17:00 +18°C° 0 mm 3 mps 747 mmHg 53%
18:00 +18°C° 0 mm 2 mps 747 mmHg 55%
19:00 +18°C° 0 mm 2 mps 747 mmHg 58%
20:00 +16°C° 0 mm 1 mps 747 mmHg 66%
21:00 +14°C° 0 mm 1 mps 747 mmHg 73%
22:00 +11°C° 0 mm 0 mps 747 mmHg 80%
23:00 +11°C° 0 mm 1 mps 747 mmHg 81%

Day after tomorrow, 29 July, Thursday

Time Temperature Precipitation Wind Pressure Humidity
00:00 +11°C° 0 mm 1 mps 747 mmHg 82%
01:00 +10°C° 0 mm 1 mps 747 mmHg 83%
02:00 +9°C° 0 mm 2 mps 747 mmHg 83%
03:00 +9°C° 0 mm 2 mps 747 mmHg 84%
04:00 +9°C° 0 mm 2 mps 747 mmHg 84%
05:00 +11°C° 0 mm 3 mps 747 mmHg 76%
06:00 +13°C° 0 mm 3 mps 747 mmHg 69%
07:00 +14°C° 0 mm 3 mps 746 mmHg 61%
08:00 +18°C° 0 mm 4 mps 746 mmHg 53%
09:00 +20°C° 0 mm 4 mps 746 mmHg 45%
10:00 +23°C° 0 mm 5 mps 746 mmHg 38%
11:00 +25°C° 0 mm 5 mps 745 mmHg 35%
12:00 +26°C° 0 mm 5 mps 745 mmHg 32%
13:00 +27°C° 0 mm 5 mps 745 mmHg 29%
14:00 +27°C° 0 mm 5 mps 744 mmHg 29%
15:00 +27°C° 0 mm 4 mps 744 mmHg 29%
16:00 +27°C° 0 mm 4 mps 743 mmHg 29%
17:00 +25°C° 0.2 mm 4 mps 743 mmHg 42%
18:00 +22°C° 0.2 mm 5 mps 743 mmHg 54%
19:00 +20°C° 0.2 mm 5 mps 743 mmHg 66%
20:00 +19°C° 0.5 mm 4 mps 743 mmHg 77%
21:00 +18°C° 0.5 mm 3 mps 743 mmHg 87%
22:00 +16°C° 0.5 mm 2 mps 743 mmHg 97%
23:00 +16°C° 0.3 mm 2 mps 742 mmHg 97%

30 July, Friday

Time Temperature Precipitation Wind Pressure Humidity
00:00 +16°C° 0.3 mm 2 mps 742 mmHg 98%
01:00 +16°C° 0.3 mm 3 mps 742 mmHg 98%
02:00 +16°C° 0.1 mm 3 mps 741 mmHg 98%
03:00 +17°C° 0.1 mm 3 mps 741 mmHg 98%
04:00 +17°C° 0.1 mm 3 mps 741 mmHg 98%
05:00 +17°C° 0.1 mm 3 mps 741 mmHg 97%
06:00 +17°C° 0.1 mm 3 mps 741 mmHg 96%
07:00 +18°C° 0.1 mm 3 mps 741 mmHg 95%
08:00 +19°C° 0.2 mm 3 mps 741 mmHg 91%
09:00 +20°C° 0.2 mm 4 mps 741 mmHg 87%
10:00 +21°C° 0.2 mm 4 mps 741 mmHg 82%
11:00 +22°C° 0.3 mm 4 mps 741 mmHg 75%
12:00 +23°C° 0.3 mm 5 mps 740 mmHg 69%
13:00 +25°C° 0.3 mm 5 mps 740 mmHg 62%
14:00 +25°C° 0.2 mm 5 mps 740 mmHg 62%
15:00 +25°C° 0.2 mm 4 mps 740 mmHg 61%
16:00 +26°C° 0.2 mm 4 mps 740 mmHg 61%
17:00 +25°C° 0.2 mm 4 mps 740 mmHg 66%
18:00 +24°C° 0.2 mm 3 mps 740 mmHg 70%
19:00 +22°C° 0.2 mm 3 mps 740 mmHg 75%
20:00 +21°C° 0 mm 3 mps 740 mmHg 79%
21:00 +20°C° 0 mm 3 mps 740 mmHg 82%
22:00 +18°C° 0 mm 3 mps 740 mmHg 86%
23:00 +18°C° 0.3 mm 3 mps 740 mmHg 89%

31 July, Saturday

Time Temperature Precipitation Wind Pressure Humidity
00:00 +17°C° 0.3 mm 3 mps 741 mmHg 91%
01:00 +17°C° 0.3 mm 3 mps 741 mmHg 93%
02:00 +17°C° 0.1 mm 3 mps 741 mmHg 93%
03:00 +17°C° 0.1 mm 2 mps 741 mmHg 93%
04:00 +17°C° 0.1 mm 2 mps 741 mmHg 93%
05:00 +18°C° 0 mm 3 mps 742 mmHg 91%
06:00 +19°C° 0 mm 3 mps 742 mmHg 89%
07:00 +20°C° 0 mm 3 mps 742 mmHg 87%
08:00 +21°C° 0 mm 4 mps 742 mmHg 78%
09:00 +23°C° 0 mm 4 mps 743 mmHg 69%
10:00 +25°C° 0 mm 5 mps 743 mmHg 60%
11:00 +26°C° 0 mm 5 mps 743 mmHg 56%
12:00 +27°C° 0 mm 5 mps 743 mmHg 53%
13:00 +28°C° 0 mm 4 mps 743 mmHg 49%
14:00 +28°C° 0 mm 4 mps 744 mmHg 49%
15:00 +28°C° 0 mm 4 mps 744 mmHg 49%
16:00 +28°C° 0 mm 4 mps 744 mmHg 49%
17:00 +27°C° 0 mm 3 mps 744 mmHg 54%
18:00 +26°C° 0 mm 3 mps 744 mmHg 59%
19:00 +25°C° 0 mm 2 mps 745 mmHg 64%
20:00 +23°C° 0 mm 2 mps 745 mmHg 70%
21:00 +21°C° 0 mm 1 mps 745 mmHg 76%
22:00 +20°C° 0 mm 1 mps 745 mmHg 82%
23:00 +19°C° 0 mm 1 mps 745 mmHg 84%

1 August, Sunday

Time Temperature Precipitation Wind Pressure Humidity
00:00 +18°C° 0 mm 2 mps 745 mmHg 86%
01:00 +17°C° 0 mm 2 mps 745 mmHg 87%
02:00 +17°C° 0 mm 2 mps 745 mmHg 88%
03:00 +17°C° 0 mm 2 mps 745 mmHg 88%
04:00 +17°C° 0 mm 2 mps 745 mmHg 88%
05:00 +19°C° 0 mm 3 mps 745 mmHg 82%
06:00 +20°C° 0 mm 3 mps 745 mmHg 75%
07:00 +22°C° 0 mm 3 mps 745 mmHg 68%
08:00 +25°C° 0 mm 4 mps 744 mmHg 60%
09:00 +27°C° 0 mm 5 mps 744 mmHg 51%
10:00 +29°C° 0 mm 5 mps 744 mmHg 42%
11:00 +30°C° 0 mm 5 mps 744 mmHg 40%
12:00 +32°C° 0 mm 5 mps 744 mmHg 38%
13:00 +34°C° 0 mm 4 mps 743 mmHg 36%
14:00 +32°C° 0.2 mm 4 mps 743 mmHg 44%
15:00 +29°C° 0.2 mm 3 mps 743 mmHg 51%
16:00 +28°C° 0.2 mm 2 mps 743 mmHg 58%
17:00 +27°C° 0.2 mm 2 mps 743 mmHg 63%
18:00 +26°C° 0.2 mm 1 mps 743 mmHg 69%
19:00 +26°C° 0.2 mm 1 mps 743 mmHg 75%
20:00 +24°C° 0.3 mm 1 mps 743 mmHg 79%
21:00 +23°C° 0.3 mm 1 mps 744 mmHg 83%
22:00 +20°C° 0.3 mm 2 mps 744 mmHg 88%
23:00 +20°C° 0.1 mm 2 mps 744 mmHg 88%
Show more